Aérodrome :
LOGIN :

S'inscrire | Disclaimer

   EN    FR    IT 

 










Légende :    VFR   VFR Marginal   IFR   IFR Intensif   IFR Très Intensif
Visi : 
Plafond : 
>= 8 km
>= 3000ft
5 à 8 km
1000 à 3000 ft
1500m à 5 km
500 à 1000 ft
800 à 1500m
200 à 500 ft
< 800m
< 200 ft
Symboles :   Orages  Brouillard  Fortes neiges  Fortes précipitations  Vent > 20 kt
SIGMETs :   Divers  Orages  Givrage  Turbulence  Onde Orograph.  Cendres Volcan.






- Altitude de l'aérodrome : 100 ft


EBDT - Schaffen

DERNIER METAR :
  • 311713Z AUTO 23008KT 9999 FEW055/// BKN140/// 18/13 Q1009 BLU

METARs EXPIRÉS :
  • 311655Z AUTO 23005KT 9999 SCT022/// SCT090/// BKN160/// 19/14 Q1009 WHT
  • 311625Z AUTO 22005KT 9999 BKN031/// 20/14 Q1009 BLU
  • 311555Z AUTO 25007KT 9999 FEW062/// 20/13 Q1010 BLU
  • 311455Z AUTO 23007KT 9999 BKN033/// BKN060/// 19/13 Q1010 BLU

Prévision TAF périmée.



MET'MAP, la Météo Aéronautique d'un coup d'oeil ! - Copyright ORBIFLY Décembre 2007 - Disclaimer

ORBIFLY MET'MAP TEAM :

Programmation & Développement : Alexandra Zaïnal
Sur une idée originale de : Baudouin d'Aumeries
Assistance à la programmation : Marc-Olivier Méhu
Soutien technique & logistique : Manuel Goepfert

Contact : metmap@orbifly.com




SOURCES & CREDITS :

   NOAA